TimeCST,TemperatureF,Dew PointF,Humidity,Sea Level PressureIn,VisibilityMPH,Wind Direction,Wind SpeedMPH,Gust SpeedMPH,PrecipitationIn,Events,Conditions,WindDirDegrees,DateUTC
12:15 AM,-3.5,-11.7,68,30.45,10.0,West,4.6,-,N/A,,Clear,260,2014-01-28 06:15:00
12:35 AM,-3.6,-11.7,68,30.45,10.0,WSW,5.8,-,N/A,,Clear,250,2014-01-28 06:35:00
12:55 AM,-4.0,-12.1,68,30.45,10.0,WSW,4.6,-,N/A,,Clear,240,2014-01-28 06:55:00
1:15 AM,-5.8,-12.1,74,30.44,10.0,SW,4.6,-,N/A,,Clear,230,2014-01-28 07:15:00
1:35 AM,-5.4,-11.6,75,30.44,10.0,WSW,4.6,-,N/A,,Clear,250,2014-01-28 07:35:00
1:55 AM,-4.9,-11.7,72,30.43,10.0,West,5.8,-,N/A,,Clear,260,2014-01-28 07:55:00
2:15 AM,-5.1,-11.9,72,30.44,10.0,WSW,5.8,-,N/A,,Clear,240,2014-01-28 08:15:00
2:35 AM,-6.5,-12.6,75,30.43,10.0,SW,5.8,-,N/A,,Clear,230,2014-01-28 08:35:00
2:55 AM,-6.3,-12.5,75,30.43,10.0,WSW,4.6,-,N/A,,Clear,240,2014-01-28 08:55:00
3:15 AM,-6.7,-12.8,75,30.43,10.0,WSW,5.8,-,N/A,,Clear,240,2014-01-28 09:15:00
3:35 AM,-6.3,-12.8,73,30.42,10.0,WSW,4.6,-,N/A,,Clear,240,2014-01-28 09:35:00
3:55 AM,-6.0,-12.3,74,30.42,10.0,WSW,4.6,-,N/A,,Clear,250,2014-01-28 09:55:00
4:15 AM,-5.6,-12.5,72,30.42,10.0,West,4.6,-,N/A,,Clear,260,2014-01-28 10:15:00
4:35 AM,-5.8,-12.6,72,30.42,10.0,West,5.8,-,N/A,,Clear,270,2014-01-28 10:35:00
4:55 AM,-5.8,-12.5,73,30.42,10.0,West,4.6,-,N/A,,Clear,270,2014-01-28 10:55:00
5:15 AM,-5.3,-12.3,72,30.43,10.0,West,5.8,-,N/A,,Clear,260,2014-01-28 11:15:00
5:35 AM,-4.9,-12.1,71,30.43,10.0,SW,4.6,-,N/A,,Clear,230,2014-01-28 11:35:00
5:55 AM,-4.9,-12.1,71,30.43,10.0,WSW,3.5,-,N/A,,Clear,240,2014-01-28 11:55:00
6:15 AM,-5.4,-12.8,70,30.43,10.0,WSW,5.8,-,N/A,,Clear,240,2014-01-28 12:15:00
6:35 AM,-5.8,-12.8,72,30.43,10.0,WSW,3.5,-,N/A,,Clear,240,2014-01-28 12:35:00
6:55 AM,-5.8,-13.0,71,30.43,10.0,WSW,4.6,-,N/A,,Clear,240,2014-01-28 12:55:00
7:15 AM,-5.6,-12.8,71,30.43,10.0,SW,3.5,-,N/A,,Clear,230,2014-01-28 13:15:00
7:35 AM,-6.3,-13.0,73,30.43,10.0,SSW,3.5,-,N/A,,Clear,210,2014-01-28 13:35:00
7:55 AM,-6.5,-12.3,76,30.43,10.0,SSW,4.6,-,N/A,,Clear,200,2014-01-28 13:55:00
8:15 AM,-3.6,-9.6,76,30.42,10.0,Calm,Calm,-,N/A,,Clear,0,2014-01-28 14:15:00
8:35 AM,-2.0,-9.2,71,30.42,10.0,SW,3.5,-,N/A,,Clear,220,2014-01-28 14:35:00
8:55 AM,0.3,-7.2,70,30.42,10.0,SW,5.8,-,N/A,,Clear,230,2014-01-28 14:55:00
9:15 AM,3.2,-6.2,65,30.42,10.0,SW,5.8,-,N/A,,Clear,230,2014-01-28 15:15:00
9:35 AM,5.4,-4.7,63,30.42,10.0,SW,6.9,-,N/A,,Clear,230,2014-01-28 15:35:00
9:55 AM,7.2,-4.4,59,30.42,10.0,WSW,11.5,-,N/A,,Clear,240,2014-01-28 15:55:00
10:15 AM,9.1,-5.4,52,30.42,10.0,West,10.4,-,N/A,,Clear,260,2014-01-28 16:15:00
10:35 AM,10.2,-5.8,49,30.42,10.0,West,12.7,-,N/A,,Clear,270,2014-01-28 16:35:00
10:55 AM,10.8,-6.3,46,30.41,10.0,West,10.4,-,N/A,,Clear,260,2014-01-28 16:55:00
11:15 AM,12.0,-7.6,41,30.40,10.0,West,10.4,19.6,N/A,,Clear,260,2014-01-28 17:15:00
11:35 AM,13.3,-6.9,40,30.38,10.0,WSW,12.7,18.4,N/A,,Clear,240,2014-01-28 17:35:00
11:55 AM,14.0,-7.2,38,30.37,10.0,West,16.1,21.9,N/A,,Scattered Clouds,270,2014-01-28 17:55:00
12:15 PM,14.2,-7.1,39,30.36,10.0,West,13.8,17.3,N/A,,Clear,270,2014-01-28 18:15:00
12:35 PM,14.9,-8.0,36,30.35,10.0,West,17.3,23.0,N/A,,Scattered Clouds,270,2014-01-28 18:35:00
12:55 PM,16.0,-7.2,35,30.34,10.0,WSW,16.1,21.9,N/A,,Clear,250,2014-01-28 18:55:00
1:15 PM,16.3,-7.4,35,30.33,10.0,West,17.3,-,N/A,,Mostly Cloudy,270,2014-01-28 19:15:00
1:35 PM,16.9,-7.1,34,30.32,10.0,West,13.8,20.7,N/A,,Scattered Clouds,270,2014-01-28 19:35:00
1:55 PM,16.7,-7.2,34,30.31,10.0,West,15.0,23.0,N/A,,Mostly Cloudy,260,2014-01-28 19:55:00
2:15 PM,17.2,-7.2,34,30.30,10.0,West,12.7,18.4,N/A,,Mostly Cloudy,270,2014-01-28 20:15:00
2:35 PM,17.4,-7.4,33,30.29,10.0,WNW,18.4,21.9,N/A,,Scattered Clouds,290,2014-01-28 20:35:00
2:55 PM,18.0,-7.8,32,30.28,10.0,West,13.8,-,N/A,,Scattered Clouds,270,2014-01-28 20:55:00
3:15 PM,16.9,-8.0,33,30.28,10.0,WNW,15.0,21.9,N/A,,Scattered Clouds,290,2014-01-28 21:15:00
3:35 PM,16.9,-8.1,33,30.28,10.0,West,15.0,23.0,N/A,,Clear,280,2014-01-28 21:35:00
3:55 PM,17.1,-8.3,32,30.27,10.0,West,16.1,19.6,N/A,,Clear,280,2014-01-28 21:55:00
4:15 PM,16.7,-8.5,32,30.28,10.0,West,17.3,21.9,N/A,,Clear,270,2014-01-28 22:15:00
4:35 PM,16.3,-8.7,33,30.28,10.0,West,15.0,-,N/A,,Clear,270,2014-01-28 22:35:00
4:55 PM,15.6,-8.7,34,30.28,10.0,West,13.8,17.3,N/A,,Clear,270,2014-01-28 22:55:00
5:15 PM,14.5,-9.0,35,30.28,10.0,West,8.1,-,N/A,,Clear,270,2014-01-28 23:15:00
5:35 PM,12.0,-8.5,40,30.28,10.0,West,6.9,-,N/A,,Clear,280,2014-01-28 23:35:00
5:55 PM,11.1,-8.5,41,30.28,10.0,West,6.9,-,N/A,,Clear,270,2014-01-28 23:55:00
6:15 PM,10.0,-8.5,43,30.27,10.0,West,4.6,-,N/A,,Clear,270,2014-01-29 00:15:00
6:35 PM,8.8,-8.5,46,30.27,10.0,West,4.6,-,N/A,,Clear,270,2014-01-29 00:35:00
6:55 PM,7.2,-8.0,50,30.27,10.0,West,5.8,-,N/A,,Clear,270,2014-01-29 00:55:00
7:15 PM,9.5,-8.5,44,30.26,10.0,WSW,4.6,-,N/A,,Clear,250,2014-01-29 01:15:00
7:35 PM,8.6,-8.5,46,30.27,10.0,WSW,4.6,-,N/A,,Clear,240,2014-01-29 01:35:00
7:55 PM,7.7,-8.0,49,30.27,10.0,SW,5.8,-,N/A,,Clear,220,2014-01-29 01:55:00
8:15 PM,7.5,-7.6,50,30.26,10.0,WSW,4.6,-,N/A,,Clear,240,2014-01-29 02:15:00
8:35 PM,6.8,-7.6,52,30.26,10.0,SW,4.6,-,N/A,,Clear,230,2014-01-29 02:35:00
8:55 PM,5.9,-7.6,54,30.26,10.0,WSW,5.8,-,N/A,,Clear,240,2014-01-29 02:55:00
9:15 PM,6.6,-7.6,52,30.26,10.0,SW,3.5,-,N/A,,Clear,230,2014-01-29 03:15:00
9:35 PM,5.4,-7.6,55,30.25,10.0,SW,5.8,-,N/A,,Clear,220,2014-01-29 03:35:00
9:55 PM,5.5,-7.4,55,30.25,10.0,SW,5.8,-,N/A,,Clear,220,2014-01-29 03:55:00
10:15 PM,5.2,-7.6,56,30.25,10.0,WSW,4.6,-,N/A,,Clear,240,2014-01-29 04:15:00
10:35 PM,6.1,-7.6,53,30.25,10.0,SW,4.6,-,N/A,,Clear,230,2014-01-29 04:35:00
10:55 PM,3.9,-7.6,59,30.25,10.0,SW,4.6,-,N/A,,Clear,220,2014-01-29 04:55:00
11:15 PM,3.0,-8.0,60,30.25,10.0,SSW,5.8,-,N/A,,Clear,210,2014-01-29 05:15:00
11:35 PM,2.8,-7.8,61,30.24,10.0,SSW,6.9,-,N/A,,Clear,210,2014-01-29 05:35:00
11:55 PM,2.1,-7.6,64,30.23,10.0,SSW,6.9,-,N/A,,Clear,210,2014-01-29 05:55:00